Zurück zum Katalog

STARLINK-35372

AktivKommunikationVLEO
NORAD 66476·PAYLOAD·🇺🇸 United States

Gestartet Nov 15, 2025 von Cape Canaveral Space Force Station

Loading…

Nächste Überflüge (nächste 24 Stunden)

TLE

AktuellSource: CelesTrak SupGP

Epoche: Sep 14, 2026, 21:20 UTC

1 66476C 25262W   26257.88937500 -.00022460  00000+0 -81381-3 0  2574
2 66476  43.0011 307.7329 0001482 273.7413   0.8994 15.27576877    19

Verfolge STARLINK-35372 in Echtzeit mit AllMySat

Download on the App Store